Location: Unspecified
(51.3762°N, 0.0000°E)
Time: 10:14:49
(UTC+00:00)

O/OREOS (USA 219) - Visible Passes

Search period start: 07 August 2020 00:00
Search period end: 17 August 2020 00:00
Orbit: 621 x 646 km, 72.0° (Epoch: 22 May)

Date Brightness Start Highest point End Pass type
(mag) Time Alt. Az. Time Alt. Az. Time Alt. Az.
07 Aug ? 02:12:54 10° N 02:16:06 19° NE 02:19:18 10° E visible
07 Aug ? 03:51:38 10° NNW 03:56:11 88° WSW 04:00:40 10° SSE visible
08 Aug ? 02:34:34 10° NNW 02:38:34 30° NE 02:42:33 10° ESE visible
08 Aug ? 20:11:45 10° W 20:15:15 21° NW 20:18:44 10° N visible
09 Aug ? 01:18:17 10° N 01:20:22 13° NE 01:22:27 10° ENE visible
09 Aug ? 02:56:25 10° NNW 03:00:52 53° ENE 03:05:16 10° SE visible
09 Aug ? 20:35:30 10° WNW 20:37:50 14° NW 20:40:09 10° N visible
10 Aug ? 01:39:39 10° N 01:42:59 20° NE 01:46:18 10° E visible
10 Aug ? 03:18:27 10° NNW 03:22:59 80° WSW 03:27:27 10° SSE visible
11 Aug ? 02:01:20 10° NNW 02:05:25 32° NE 02:09:28 10° ESE visible
11 Aug ? 03:40:42 10° NW 03:44:55 40° WSW 03:49:06 10° S visible
12 Aug ? 00:44:58 10° N 00:47:16 14° NE 00:49:33 10° ENE visible
12 Aug ? 02:23:13 10° NNW 02:27:41 58° ENE 02:32:06 10° SE visible
12 Aug ? 20:02:38 10° WNW 20:04:43 13° NW 20:06:48 10° N visible
13 Aug ? 01:06:24 10° N 01:09:51 21° NE 01:13:17 10° E visible
13 Aug ? 02:45:16 10° NNW 02:49:47 73° WSW 02:54:14 10° SSE visible
14 Aug ? 01:28:06 10° NNW 01:32:16 35° NE 01:36:23 10° ESE visible
14 Aug ? 03:07:34 10° NW 03:11:42 36° WSW 03:15:47 10° S visible
15 Aug ? 00:11:40 10° N 00:14:10 14° NE 00:16:38 10° ENE visible
15 Aug ? 01:50:01 10° NNW 01:54:31 64° ENE 01:58:13 15° SE visible
15 Aug ? 03:30:19 10° WNW 03:33:27 19° WSW 03:35:33 14° SW visible
16 Aug ? 00:33:08 10° N 00:36:43 22° NE 00:40:16 10° E visible
16 Aug ? 02:12:06 10° NNW 02:16:35 66° WSW 02:18:26 33° S visible
16 Aug ? 23:18:00 10° NNE 23:18:20 10° NNE 23:18:41 10° NNE visible
